User: anonymous   Login
Location: Unspecified
(0.0000°N, 0.0000°E)
Time: 19:04:44
(UTC+00:00)
Language:

UFO-8 - Orbit

View from above orbital plane
View from above orbital plane
View from above satellite
View from above satellite

Ground track
Ground track

The orbit data is extracted from the following two-line orbital elements,

1 25258U 98016A   19083.59493663 -.00000042  00000-0  00000+0 0  9998
2 25258   8.2078  34.6684 0006856 325.7575 207.0157  1.00272033 77081
Epoch (UTC): 24 March 2019 14:16:42
Eccentricity: 0.0006856
inclination: 8.2078°
perigee height: 35757 km
apogee height: 35815 km
right ascension of ascending node: 34.6684°
argument of perigee: 325.7575°
revolutions per day: 1.00272033
mean anomaly at epoch: 207.0157°
orbit number at epoch: 7708

The dashed part of the orbit path shows where the satellite is in the earth's shadow,  

DLR